Flag for U.S.A. Weather past 2 weeks in Passaic, New Jersey, U.S.A.

Now
67 °F

Scattered clouds.


Feels Like: 67 °F
Forecast: 53 / 69 °F
Wind: 16 mph from Northwest

Location: Teterboro Airport

Current Time: Sep 22, 2014 at 11:04:28 AM

Latest Report: Sep 22, 2014 at 9:51 AM


Visibility: 10 mi

Pressure: 29.85 "Hg

Humidity: 57%

Dew point: 51 °F

Location of PassaicLocation

Historic Weather in Passaic — Graph

°F

Passaic temperature yesterday

Maximum temperature yesterday: 77 °F (at 4:51 PM)
Minimum temperature yesterday: 66 °F (at 6:00 AM)
Average temperature yesterday: 71 °F

Past Weeks' High & Low Weather Summary

 TemperatureHumidityPressure
High84 °F (Sep 11, 5:51 PM)94% (Sep 13, 6:58 PM)30.37 "Hg (Sep 13, 6:58 PM)
Low50 °F (Sep 15, 4:51 AM)26% (Sep 18, 4:51 PM)29.60 "Hg (Sep 21, 6:51 PM)
Average66 °F62%30.08 "Hg
* Reported Sep 7 9:51 AM — Sep 22 9:51 AM, Passaic, Weather by CustomWeather, © 2014

Note: Actual official high and low records may vary slightly from our data, if they occured in-between our weather recording intervals... More about our weather records

Advertising

Passaic weather history for previous 24 hours

 ConditionsComfort  
Time TempWeatherWind HumidityBarometerVisibility
9:51 AM
Sep 22
67 °FScattered clouds.16 mph57%29.85 "Hg10 mi
8:51 AM66 °FSunny.13 mph61%29.83 "Hg10 mi
7:51 AM64 °FSunny.10 mph65%29.79 "Hg10 mi
6:51 AM63 °FClear.8 mph68%29.76 "Hg10 mi
5:51 AM64 °FClear.7 mph68%29.72 "Hg10 mi
4:51 AM64 °FClear.5 mph75%29.70 "Hg10 mi
3:51 AM66 °FPassing clouds.3 mph73%29.67 "Hg10 mi
2:51 AM67 °FPassing clouds.6 mph71%29.66 "Hg10 mi
1:51 AM67 °FPassing clouds.5 mph76%29.65 "Hg10 mi
12:51 AM70 °FRain. Mostly cloudy.7 mph76%29.63 "Hg10 mi
11:51 PM
Sep 21
72 °FRain. Mostly cloudy.7 mph81%29.61 "Hg7 mi
10:51 PM71 °FClear.6 mph84%29.61 "Hg10 mi
9:51 PM69 °FPassing clouds.5 mph84%29.62 "Hg10 mi
8:51 PM71 °FClear.7 mph81%29.61 "Hg10 mi
7:51 PM72 °FSunny.3 mph78%29.61 "Hg10 mi
6:51 PM75 °FSunny.7 mph71%29.60 "Hg10 mi
5:51 PM76 °FSunny.3 mph72%29.61 "Hg10 mi
4:51 PM77 °FSunny.8 mph69%29.64 "Hg10 mi
3:51 PM76 °FPassing clouds.7 mph72%29.66 "Hg8 mi
2:51 PM76 °FFog.No wind72%29.70 "Hg5 mi
1:51 PM74 °FFog.3 mph76%29.74 "Hg4 mi
12:51 PM71 °FFog.No wind84%29.79 "Hg3 mi
11:58 AM72 °FFog.5 mph83%29.81 "Hg3 mi
Weather by CustomWeather, © 2014

See weather overviewHow to use our weather pages